�������l�o���
Date,Time,MP-1(��Sv/h),MP-2(��Sv/h),MP-3(��Sv/h),MP-4(��Sv/h),MP-5(��Sv/h),MP-6(��Sv/h),MP-7(��Sv/h),MP-8(��Sv/h),����,����(m/s),���J
2020/12/18,00:00,0.670,0.962,0.613,1.214,0.854,0.380,0.674,0.635,��,3.1,��
2020/12/18,00:10,0.669,0.961,0.612,1.215,0.852,0.381,0.673,0.636,���쐼,2.5,��
2020/12/18,00:20,0.669,0.961,0.613,1.216,0.851,0.380,0.673,0.635,���쐼,3.3,��
2020/12/18,00:30,0.668,0.960,0.613,1.215,0.853,0.380,0.676,0.634,��,4.3,��
2020/12/18,00:40,0.669,0.962,0.611,1.214,0.853,0.379,0.674,0.636,��,3.8,��
2020/12/18,00:50,0.669,0.961,0.612,1.217,0.851,0.379,0.673,0.636,���쐼,3.2,��
2020/12/18,01:00,0.670,0.962,0.613,1.216,0.852,0.380,0.674,0.636,���쐼,3.9,��
2020/12/18,01:10,0.670,0.963,0.611,1.217,0.852,0.379,0.672,0.635,��,2.6,��
2020/12/18,01:20,0.671,0.960,0.610,1.216,0.850,0.380,0.674,0.634,���k��,2.5,��
2020/12/18,01:30,0.669,0.962,0.610,1.216,0.853,0.380,0.674,0.636,�k��,2.0,��
2020/12/18,01:40,0.669,0.962,0.612,1.215,0.850,0.380,0.674,0.635,���k��,2.0,��
2020/12/18,01:50,0.668,0.960,0.612,1.216,0.852,0.378,0.673,0.637,���k��,2.3,��
2020/12/18,02:00,0.670,0.960,0.612,1.215,0.853,0.380,0.672,0.633,���k��,2.6,��
2020/12/18,02:10,0.669,0.960,0.612,1.214,0.853,0.379,0.673,0.634,���k��,2.5,��
2020/12/18,02:20,0.669,0.962,0.611,1.213,0.851,0.379,0.673,0.635,���k��,2.8,��
2020/12/18,02:30,0.670,0.960,0.611,1.216,0.850,0.379,0.674,0.636,�k��,3.2,��
2020/12/18,02:40,0.670,0.960,0.611,1.214,0.852,0.380,0.674,0.635,�k��,3.7,��
2020/12/18,02:50,0.669,0.960,0.610,1.216,0.853,0.380,0.674,0.635,�k��,5.1,��
2020/12/18,03:00,0.669,0.961,0.613,1.213,0.852,0.380,0.673,0.635,���k��,5.0,��
2020/12/18,03:10,0.670,0.959,0.612,1.217,0.850,0.379,0.673,0.637,���k��,5.4,��
2020/12/18,03:20,0.671,0.960,0.612,1.215,0.849,0.380,0.673,0.635,��,6.3,��
2020/12/18,03:30,0.669,0.961,0.610,1.216,0.852,0.379,0.674,0.633,��,5.7,��
2020/12/18,03:40,0.670,0.962,0.611,1.213,0.851,0.380,0.674,0.636,���k��,5.3,��
2020/12/18,03:50,0.669,0.959,0.613,1.216,0.852,0.381,0.674,0.634,���k��,3.4,��
2020/12/18,04:00,0.671,0.962,0.612,1.216,0.850,0.379,0.673,0.636,���쐼,2.9,��
2020/12/18,04:10,0.668,0.960,0.611,1.213,0.849,0.378,0.673,0.637,���k��,3.7,��
2020/12/18,04:20,0.668,0.961,0.612,1.215,0.852,0.380,0.674,0.636,�k��,3.1,��
2020/12/18,04:30,0.669,0.960,0.610,1.216,0.849,0.379,0.673,0.635,���k��,2.5,��
2020/12/18,04:40,0.670,0.960,0.610,1.213,0.853,0.378,0.673,0.635,���k��,3.4,��
2020/12/18,04:50,0.668,0.960,0.611,1.214,0.851,0.379,0.672,0.636,���k��,3.4,��
2020/12/18,05:00,0.669,0.959,0.612,1.216,0.851,0.381,0.675,0.634,�k��,3.0,��
2020/12/18,05:10,0.668,0.960,0.611,1.217,0.850,0.380,0.673,0.634,���k��,2.0,��
2020/12/18,05:20,0.668,0.962,0.611,1.214,0.850,0.380,0.673,0.635,���쐼,1.4,��
2020/12/18,05:30,0.669,0.961,0.610,1.215,0.851,0.380,0.673,0.635,���쐼,1.9,��
2020/12/18,05:40,0.669,0.962,0.612,1.216,0.849,0.379,0.675,0.635,���k��,2.3,��
2020/12/18,05:50,0.670,0.960,0.610,1.213,0.852,0.378,0.676,0.635,���쐼,2.2,��
2020/12/18,06:00,0.670,0.959,0.609,1.215,0.849,0.379,0.673,0.635,�쐼,2.9,��
2020/12/18,06:10,0.669,0.960,0.610,1.215,0.849,0.378,0.674,0.635,�쐼,2.9,��
2020/12/18,06:20,0.667,0.962,0.609,1.215,0.849,0.379,0.674,0.635,���쐼,2.8,��
2020/12/18,06:30,0.670,0.960,0.611,1.217,0.849,0.379,0.673,0.633,���쐼,2.8,��
2020/12/18,06:40,0.667,0.960,0.610,1.216,0.849,0.379,0.673,0.636,���쐼,2.9,��
2020/12/18,06:50,0.668,0.957,0.611,1.214,0.849,0.378,0.672,0.636,���쐼,3.2,��
2020/12/18,07:00,0.667,0.960,0.611,1.214,0.850,0.380,0.673,0.634,���쐼,4.3,��
2020/12/18,07:10,0.669,0.960,0.611,1.213,0.849,0.378,0.672,0.634,���쐼,4.7,��
2020/12/18,07:20,0.668,0.958,0.612,1.215,0.852,0.378,0.675,0.636,���쐼,5.7,��
2020/12/18,07:30,0.669,0.961,0.612,1.214,0.850,0.378,0.674,0.634,���쐼,4.6,��
2020/12/18,07:40,0.668,0.958,0.612,1.215,0.851,0.378,0.673,0.635,�쐼,4.3,��
2020/12/18,07:50,0.667,0.958,0.610,1.218,0.849,0.380,0.674,0.634,�쐼,4.3,��
2020/12/18,08:00,0.670,0.960,0.611,1.215,0.849,0.378,0.675,0.635,��쐼,3.4,��
2020/12/18,08:10,0.669,0.958,0.609,1.215,0.850,0.380,0.674,0.636,�쐼,3.6,��
2020/12/18,08:20,0.670,0.959,0.611,1.214,0.849,0.378,0.674,0.635,��쐼,3.8,��
2020/12/18,08:30,0.669,0.958,0.611,1.214,0.849,0.378,0.674,0.634,��,2.3,��
2020/12/18,08:40,0.670,0.956,0.612,1.214,0.850,0.378,0.675,0.635,��,2.3,��
2020/12/18,08:50,0.671,0.959,0.612,1.213,0.850,0.379,0.673,0.635,��,2.3,��
2020/12/18,09:00,0.672,0.958,0.612,1.214,0.850,0.379,0.675,0.635,��,2.3,��
2020/12/18,09:10,0.671,0.957,0.611,1.216,0.849,0.380,0.676,0.636,��쓌,2.0,��
2020/12/18,09:20,0.672,0.960,0.611,1.215,0.851,0.380,0.675,0.636,��쓌,2.6,��
2020/12/18,09:30,0.672,0.956,0.612,1.215,0.851,0.380,0.675,0.635,��쓌,2.6,��
2020/12/18,09:40,0.672,0.958,0.612,1.215,0.849,0.379,0.676,0.636,��쓌,2.6,��
2020/12/18,09:50,0.672,0.958,0.612,1.217,0.850,0.380,0.675,0.635,��쓌,2.3,��
2020/12/18,10:00,0.671,0.954,0.610,1.215,0.851,0.379,0.675,0.636,��쓌,3.1,��
2020/12/18,10:10,0.672,0.957,0.610,1.213,0.851,0.379,0.673,0.636,��,1.5,��
2020/12/18,10:20,0.673,0.956,0.610,1.215,0.854,0.380,0.676,0.636,�쐼,2.0,��
2020/12/18,10:30,0.673,0.957,0.609,1.217,0.852,0.381,0.674,0.637,��,2.8,��
2020/12/18,10:40,0.672,0.958,0.609,1.213,0.854,0.381,0.674,0.637,���쓌,2.5,��
2020/12/18,10:50,0.672,0.957,0.611,1.213,0.853,0.380,0.674,0.637,���k��,1.7,��
2020/12/18,11:00,0.673,0.959,0.609,1.217,0.854,0.380,0.673,0.637,�k��,1.1,��
2020/12/18,11:10,0.674,0.957,0.612,1.214,0.852,0.381,0.674,0.637,�k��,2.8,��
2020/12/18,11:20,0.672,0.958,0.611,1.216,0.852,0.380,0.676,0.637,��,3.4,��
2020/12/18,11:30,0.675,0.959,0.609,1.216,0.854,0.380,0.676,0.636,�k�k��,1.5,��
2020/12/18,11:40,0.674,0.958,0.610,1.214,0.854,0.380,0.675,0.636,�k,1.9,��
2020/12/18,11:50,0.675,0.963,0.612,1.216,0.852,0.381,0.674,0.637,���k��,1.9,��
2020/12/18,12:00,0.675,0.963,0.614,1.216,0.853,0.381,0.676,0.636,�k�k��,1.2,��
2020/12/18,12:10,0.674,0.960,0.612,1.216,0.853,0.380,0.676,0.637,���k��,3.9,��
2020/12/18,12:20,0.674,0.963,0.614,1.219,0.855,0.380,0.675,0.636,���k��,2.6,��
2020/12/18,12:30,0.674,0.962,0.614,1.218,0.853,0.379,0.677,0.637,�k�k��,2.8,��
2020/12/18,12:40,0.674,0.962,0.614,1.216,0.855,0.380,0.676,0.637,�k,2.7,��
2020/12/18,12:50,0.674,0.964,0.616,1.219,0.854,0.381,0.677,0.636,�k,1.7,��
2020/12/18,13:00,0.674,0.961,0.614,1.218,0.853,0.381,0.676,0.637,�k�k��,1.2,��
2020/12/18,13:10,0.675,0.962,0.614,1.218,0.855,0.382,0.675,0.637,���k��,1.9,��
2020/12/18,13:20,0.675,0.962,0.614,1.217,0.854,0.382,0.677,0.639,�k��,2.2,��
2020/12/18,13:30,0.676,0.962,0.614,1.218,0.856,0.382,0.675,0.637,���k��,2.0,��
2020/12/18,13:40,0.675,0.960,0.613,1.216,0.856,0.381,0.676,0.635,�k,0.6,��
2020/12/18,13:50,0.676,0.961,0.615,1.219,0.854,0.380,0.676,0.636,��,1.6,��
2020/12/18,14:00,0.676,0.964,0.614,1.218,0.856,0.380,0.677,0.639,���k��,1.4,��
2020/12/18,14:10,0.675,0.957,0.613,1.219,0.855,0.380,0.678,0.636,�쓌,1.5,��
2020/12/18,14:20,0.675,0.958,0.614,1.218,0.855,0.381,0.677,0.639,��,0.9,��
2020/12/18,14:30,0.676,0.958,0.618,1.218,0.856,0.381,0.677,0.638,��,7.0,��
2020/12/18,14:40,0.675,0.960,0.614,1.218,0.856,0.381,0.679,0.639,��,6.4,��
2020/12/18,14:50,0.674,0.963,0.614,1.220,0.855,0.381,0.676,0.638,���쐼,6.4,��
2020/12/18,15:00,0.675,0.964,0.614,1.219,0.856,0.381,0.679,0.636,��,6.6,��
2020/12/18,15:10,0.672,0.963,0.613,1.220,0.856,0.381,0.678,0.637,��,6.7,��
2020/12/18,15:20,0.675,0.964,0.615,1.217,0.855,0.383,0.678,0.637,��,5.8,��
2020/12/18,15:30,0.673,0.963,0.614,1.219,0.857,0.384,0.678,0.638,��,5.6,��
2020/12/18,15:40,0.675,0.964,0.614,1.217,0.855,0.380,0.678,0.637,��,5.7,��
2020/12/18,15:50,0.673,0.961,0.614,1.219,0.857,0.382,0.678,0.636,��,5.1,��
2020/12/18,16:00,0.674,0.964,0.615,1.216,0.855,0.380,0.678,0.637,��,5.2,��
2020/12/18,16:10,0.674,0.964,0.613,1.219,0.855,0.381,0.678,0.635,��,4.3,��
2020/12/18,16:20,0.676,0.962,0.615,1.219,0.857,0.381,0.677,0.637,���쐼,3.7,��
2020/12/18,16:30,0.674,0.965,0.614,1.221,0.854,0.382,0.677,0.636,��,3.1,��
2020/12/18,16:40,0.674,0.965,0.615,1.221,0.857,0.381,0.678,0.637,��,3.1,��
2020/12/18,16:50,0.674,0.962,0.615,1.217,0.856,0.380,0.677,0.635,��,2.5,��
2020/12/18,17:00,0.674,0.964,0.615,1.220,0.855,0.382,0.678,0.638,���쐼,2.3,��
2020/12/18,17:10,0.674,0.965,0.615,1.217,0.856,0.382,0.677,0.636,��,2.3,��
2020/12/18,17:20,0.674,0.965,0.614,1.216,0.855,0.381,0.678,0.636,��,3.0,��
2020/12/18,17:30,0.674,0.962,0.615,1.220,0.856,0.383,0.676,0.637,���쐼,3.1,��
2020/12/18,17:40,0.674,0.962,0.615,1.221,0.854,0.381,0.676,0.636,���쐼,3.3,��
2020/12/18,17:50,0.673,0.964,0.615,1.219,0.856,0.380,0.679,0.635,�쐼,3.7,��
2020/12/18,18:00,0.673,0.964,0.615,1.220,0.856,0.382,0.676,0.635,�쐼,4.2,��
2020/12/18,18:10,0.674,0.964,0.614,1.220,0.856,0.382,0.677,0.636,���쐼,4.5,��
2020/12/18,18:20,0.674,0.965,0.615,1.217,0.854,0.380,0.677,0.637,��,4.5,��
2020/12/18,18:30,0.674,0.966,0.614,1.218,0.855,0.383,0.678,0.636,���쐼,4.7,�L
2020/12/18,18:40,0.673,0.965,0.614,1.219,0.856,0.382,0.675,0.637,���쐼,4.5,�L
2020/12/18,18:50,0.675,0.964,0.616,1.220,0.855,0.380,0.678,0.635,���쐼,4.8,��
2020/12/18,19:00,0.673,0.965,0.616,1.218,0.858,0.382,0.676,0.637,�쐼,4.3,��
2020/12/18,19:10,0.675,0.965,0.616,1.221,0.853,0.382,0.677,0.637,�쐼,4.5,��
2020/12/18,19:20,0.676,0.965,0.616,1.221,0.856,0.382,0.679,0.637,�쐼,5.2,��
2020/12/18,19:30,0.675,0.965,0.615,1.219,0.856,0.382,0.678,0.636,�쐼,5.6,��
2020/12/18,19:40,0.676,0.965,0.616,1.219,0.855,0.381,0.678,0.637,���쐼,5.5,��
2020/12/18,19:50,0.674,0.967,0.614,1.219,0.856,0.382,0.677,0.637,���쐼,4.2,��
2020/12/18,20:00,0.675,0.966,0.614,1.218,0.855,0.382,0.676,0.636,�쐼,2.6,��
2020/12/18,20:10,0.676,0.965,0.615,1.219,0.855,0.382,0.678,0.637,��쐼,3.3,��
2020/12/18,20:20,0.675,0.964,0.614,1.216,0.857,0.381,0.676,0.639,��쐼,3.1,��
2020/12/18,20:30,0.675,0.966,0.614,1.219,0.856,0.382,0.677,0.635,��쐼,4.4,��
2020/12/18,20:40,0.674,0.966,0.614,1.218,0.856,0.383,0.676,0.637,��쐼,4.3,��
2020/12/18,20:50,0.675,0.963,0.614,1.220,0.858,0.383,0.677,0.636,��쐼,3.7,��
2020/12/18,21:00,0.673,0.966,0.615,1.220,0.854,0.381,0.677,0.637,��쐼,3.1,��
2020/12/18,21:10,0.676,0.964,0.616,1.221,0.856,0.383,0.675,0.636,�쐼,2.8,��
2020/12/18,21:20,0.675,0.964,0.614,1.219,0.856,0.383,0.680,0.637,���쐼,3.4,��
2020/12/18,21:30,0.674,0.964,0.615,1.220,0.857,0.382,0.677,0.636,���쐼,6.6,��
2020/12/18,21:40,0.674,0.966,0.615,1.220,0.856,0.381,0.676,0.637,�쐼,8.6,��
2020/12/18,21:50,0.674,0.964,0.614,1.217,0.856,0.381,0.676,0.637,���쐼,6.9,��
2020/12/18,22:00,0.676,0.965,0.616,1.221,0.854,0.382,0.678,0.637,�쐼,3.8,��
2020/12/18,22:10,0.675,0.965,0.614,1.220,0.858,0.382,0.676,0.637,���쐼,5.4,��
2020/12/18,22:20,0.675,0.966,0.614,1.219,0.857,0.383,0.677,0.637,���쐼,6.1,��
2020/12/18,22:30,0.675,0.964,0.615,1.221,0.858,0.383,0.678,0.636,���쐼,5.3,��
2020/12/18,22:40,0.677,0.966,0.615,1.222,0.857,0.383,0.678,0.637,��,5.1,��
2020/12/18,22:50,0.674,0.965,0.615,1.221,0.857,0.382,0.678,0.639,��,5.3,��
2020/12/18,23:00,0.674,0.967,0.614,1.223,0.855,0.383,0.678,0.639,��,5.8,��
2020/12/18,23:10,0.676,0.966,0.618,1.220,0.858,0.383,0.678,0.638,���k��,4.7,��
2020/12/18,23:20,0.676,0.966,0.616,1.221,0.857,0.382,0.678,0.636,���k��,6.6,��
2020/12/18,23:30,0.676,0.965,0.615,1.221,0.856,0.383,0.676,0.638,��,8.1,�L
2020/12/18,23:40,0.675,0.967,0.616,1.219,0.857,0.382,0.679,0.638,��,10.5,�L
2020/12/18,23:50,0.675,0.967,0.615,1.218,0.858,0.383,0.679,0.637,��,9.7,�L
